Weather in Los Cristianos

Spain     28°03′03″N   16°43′08″W
temp.,
°C
wind,
m/s
gust,
m/s
humid.,
%
clouds,
%
prec.,
mm/h
press.,
hPa
HPBL,
m
17 june, thu
thu1701:00+21wnw22837 0.0 1019188
04:00+20sse338054 0.0 1019530
07:00+20wsw117957 0.1 1019311
10:00+21wsw227626 0.0 1020363
13:00+21sse457718 0.0 1020451
16:00+21w127532 0.0 1020400
19:00+21wnw568042 0.0 1019463
22:00+21n128295 0.0 1020256
18 june, fri
fri1801:00+21nw328223 0.0 1020291
04:00+20ssw128286 0.0 1019288
07:00+20ese238198 0.1 1019363
10:00+21ese657672 0.1 1020558
13:00+21ese767279 0.1 1020670
16:00+21ese866658 0.0 1019540
19:00+21ese866642 0.0 1019674
22:00+21ese546531 0.0 1020546
19 june, sat
sat1901:00+20se226590 0.0 1021811
04:00+20sse226477 0.0 1020676
07:00+19sse436652 0.0 1020740
10:00+20sse226265 0.0 1021705
13:00+21se446357 0.0 1022812
16:00+21ese44679 0.0 1021537
19:00+20se756916 0.0 1021621
22:00+20se556815 0.0 1022853
20 june, sun
sun2001:00+19ene126580 0.0 1022676
04:00+19ssw33665 0.0 1020548
07:00+19se76705 0.0 1020515
10:00+20se03663 0.0 1022655
13:00+20sse33661 0.0 1022545
16:00+21se66720 0.0 1021584
19:00+20wnw23796 0.0 1020403
22:00+20sse348319 0.0 1020349
21 june, mon
mon2101:00+20sse447836 0.0 1020444
04:00+20ssw227643 0.0 1018274
07:00+20sse33790 0.0 1019254
10:00+21s43750 0.0 1020317
13:00+21s33759 0.0 1020257
16:00+21ssw237915 0.0 1020285
19:00+21sse338111 0.0 1019374
22:00+21ese348421 0.0 1019262